Voltar ao catálogo

QIANFAN-58

AtivoComunicaçõesPO
NORAD 62788·PAYLOAD·🇨🇳 China

Lançado Jan 23, 2025 de Taiyuan Satellite Launch Center

Loading…

Próximas Passagens (próximas 24 horas)

TLE

AtualizadoSource: Space-Track

Época: Sep 14, 2026, 14:33 UTC

1 62788U 25016D   26257.60688507  .00000036  00000-0  37082-4 0  9990
2 62788  88.9644  74.3218 0011988 265.9161  94.0620 13.51019893 84490

Acompanhe QIANFAN-58 em tempo real com AllMySat

Download on the App Store